Location: Trebic
(49.2170°N, 15.8830°E)
Time: 19:02:15
(UTC+02:00)

Transit 4A - Pass Details

Date: 28 August 2019
Orbit: 865 x 980 km, 66.8° (Epoch: 21 September)

Event Time Altitude Azimuth Distance (km) Brightness Sun altitude
Rises 02:05:54 0° 324° (NW) 3,645 11.4 -29.0°
Reaches altitude 10° 02:08:29 10° 326° (NW) 2,681 10.7 -28.9°
Maximum altitude 02:14:45 79° 53° (NE) 951 7.9 -28.5°
Enters shadow 02:15:46 63° 120° (ESE) 1,031 8.0 -28.5°
Drops below altitude 10° 02:20:47 10° 140° (SE) 2,585 - -28.2°
Sets 02:23:15 0° 142° (SE) 3,506 - -28.0°
